Weather in Toronto

Canada     43˚41′03″N   79˚25′52″W
temp.,
°C
wind,
m/s
gust,
m/s
humid.,
%
clouds,
%
prec.,
mm/h
press.,
hPa
HPBL,
m
17 january, sun
sun1701:00w6127499 0.0 997921
04:00+1˚wnw51174100 0.0 998913
07:00wnw4117692 0.0 1000804
10:00+1˚wnw5107264 0.0 1002955
13:00+3˚wnw596046 0.0 10021080
16:00+1˚wnw586662 0.0 10031048
19:00nw377177 0.0 1005738
22:00−1˚nw357089 0.0 1005579
18 january, mon
mon1801:00−2˚nw356883 0.0 1005527
04:00−3˚nnw237356 0.0 1005405
07:00−5˚nnw356777 0.0 1007387
10:00−5˚nnw366499 0.0 1009482
13:00−4˚nw355192 0.0 1009524
16:00−3˚nw345040 0.0 1010626
19:00−4˚nnw356161 0.0 1013499
22:00−4˚nw246097 0.0 1014443
19 january, tue
tue1901:00−4˚wnw136894 0.0 1015419
04:00−4˚sse118795 0.1 1015138
07:00−2˚wsw288298 0.4 1016650
10:00−1˚wsw597193 0.0 1015936
13:00−1˚w598096 0.1 1015895
16:00−1˚w61057100 0.1 10151380
19:00−3˚w6116283 0.1 10161177
22:00−3˚wnw41069100 0.1 10151319
20 january, wed
wed2001:00−5˚wnw6116095 0.1 10161283
04:00−7˚nw61259100 0.1 10171145
07:00−8˚nw6125658 0.1 10191090
10:00−8˚nw59570 0.0 1021936
13:00−6˚wnw364722 0.0 10211103
16:00−6˚wsw3553100 0.0 1019986
19:00−5˚wsw3559100 0.0 10171029
22:00−5˚ssw4860100 0.0 1014877
21 january, thu
thu2101:00−3˚ssw41269100 0.0 1009925
04:00−2˚sw51384100 0.0 10051057
07:00−2˚sw41282100 0.1 1001878
10:00wsw5117797 0.0 10001105
13:00+2˚w6116399 0.1 9991387
16:00+1˚w61166100 0.1 9991380
19:00wsw4117593 0.1 1000917
22:00w4117599 0.1 10011132